Miscellaneous Local Product
Issued by NWS North Platte, NE

Home | Current Version | Previous Version | Graphics & Text | Print | Product List | Glossary On
Versions: 1 2 3 4 5 6 7 8 9 10 11 12 13 14 15 16 17 18 19 20 21 22 23 24 25 26 27 28 29 30 31 32 33 34 35 36 37 38 39 40 41 42 43 44 45 46 47 48 49 50
000
AXUS43 KLBF 030610
MISLBF


WESTERN AND NORTH CENTRAL NEBRASKA HOURLY WEATHER ROUNDUP
NATIONAL WEATHER SERVICE NORTH PLATTE NE
1200 AM CST TUE MAR 03 2015

***STATIONS NOT REPORTING VARIABLES SUCH AS SKY/WEATHER OR
PRESSURE ARE PROVIDED BY THE NEBRASKA DEPARTMENT OF
ROADS...RAWS...AND APRS NETWORKS...AND ARE NOT UNDER
NATIONAL WEATHER SERVICE QUALITY CONTROL***

...OBSERVATIONS IN AND NEAR THE EASTERN PANHANDLE OF NEBRASKA...

CITY           SKY/WX    TMP DP  RH WIND       PRES   REMARKS
PINE RIDGE     LGT SNOW  29  26  89 W3        29.66F VSB 3/4
CHADRON        SNOW      30  28  92 CALM      29.66F VSB 1/2
ALLIANCE       CLOUDY    29  25  85 CALM      29.62F
SIDNEY         CLOUDY    29  27  92 NE3       29.61F FOG
WHITECLAY        N/A     28  25  89 CALM        N/A
CRESCENT LAKE    N/A     27  26  95 CALM        N/A
LISCO            N/A     30  27  86 E6          N/A  WCI  24
BIG SPRINGS      N/A     31  30  95 CALM        N/A
LEWELLEN         N/A     29  27  94 CALM        N/A
$$

...OBSERVATIONS IN NORTH CENTRAL NEBRASKA...

CITY           SKY/WX    TMP DP  RH WIND       PRES   REMARKS
VALENTINE      CLOUDY    32  24  72 SW12      29.69S WCI  23
THEDFORD       CLOUDY    30  25  81 S9        29.68R WCI  21
AINSWORTH      CLOUDY    31  23  72 SW8       29.69S WCI  24
O`NEILL        CLOUDY    31  18  58 S13G18    29.74F WCI  21
ORD            CLOUDY    29  16  58 S10G20    29.73F WCI  20
BROKEN BOW     CLOUDY    29  19  66 S21       29.68F WCI  16
BROWNLEE         N/A     30  25  80 S14         N/A  WCI  20
SPRINGVIEW       N/A     31  21  65 S3          N/A
BREWSTER         N/A     32  21  64 S9          N/A  WCI  24
ROSE             N/A     33  23  67 E8          N/A  WCI  25
NEWPORT          N/A     33  20  57 S9          N/A  WCI  25
SARGENT          N/A     29  20  68 S5          N/A  WCI  24
COMSTOCK         N/A     33  22  62 S14         N/A  WCI  24
CHAMBERS         N/A     29  13  51 S5G15       N/A  WCI  24
EWING            N/A     29  19  66 S7G14       N/A  WCI  22
$$

...OBSERVATIONS IN SOUTHWEST NEBRASKA AND FAR NORTHEAST COLORADO...

CITY           SKY/WX    TMP DP  RH WIND       PRES   REMARKS
WRAY           FAIR      31  31 100 N6        29.59R WCI  26
IMPERIAL         N/A     29  25  85 E7        29.61R FOG     WCI  22
OGALLALA       CLOUDY    29  28  97 CALM      29.64R FOG
NORTH PLATTE   CLOUDY    28  22  78 SE7       29.65F WCI  21
MCCOOK         CLOUDY    31  24  75 SE12      29.63F WCI  22
LEXINGTON      CLOUDY    29  21  70 SE15      29.69F WCI  18
PAXTON           N/A     29  27  91 SE5         N/A  WCI  24
BRADY            N/A     28  21  75 CALM        N/A
GOTHENBURG       N/A     27  20  73 SE9         N/A  WCI  18
CALLAWAY         N/A     27  22  79 S13         N/A  WCI  16
$$

...NORTH PLATTE AREA...

CITY           SKY/WX    TMP DP  RH WIND       PRES   REMARKS
AIRPORT        CLOUDY    28  22  78 SE7       29.65F WCI  21
DOWNTOWN         N/A     28  23  81 SE3         N/A
$$

...SOME WEATHER OBSERVATIONS FROM AROUND THE REGION...

CITY           SKY/WX    TMP DP  RH WIND       PRES   REMARKS
DENVER         MOCLDY    30  24  78 SW10      29.57F HAZE    WCI  21
LARAMIE        FAIR      32  27  81 SW18      29.54F WCI  20
CHEYENNE       MOCLDY    38  31  76 NW12      29.53F WCI  30
SCOTTSBLUFF    MIX PCPN  30  26  85 SE7       29.60F FOG     WCI  23
RAPID CITY     CLOUDY    35  19  52 N10       29.69F WCI  27
PIERRE         LGT SNOW  34  25  69 S21       29.67F WCI  22
WINNER         FAIR      33  16  49 S14       29.70F WCI  23
SIOUX FALLS    CLOUDY    27  19  72 SE16      29.83F WCI  15
OMAHA          CLOUDY    32  20  61 SE17      29.90F WCI  21
GRAND ISLAND   CLOUDY    29  20  69 S15G23    29.79F WCI  18
KANSAS CITY    CLOUDY    34  27  75 S16       29.98F WCI  24
WICHITA        CLOUDY    33  31  92 S23G30    29.91F FOG     WCI  21
HAYS           FAIR      30  19  64 S14       29.74F WCI  20
LIBERAL        FAIR      36  30  80 S21       29.78F WCI  24
GOODLAND       FAIR      33  31  92 S21       29.54F WCI  21
$$



USA.gov is the U.S. government's official web portal to all federal, state and local government web resources and services.